IV3IYL-13 Weather Reports


Display with metric or nautical units.
time (UTC)temp
F
wind
direction
speed
MPH
gust
MPH
rain 1hr
in
rain 24hr
in
rain mn
in
humidity
%
barometer
mb
20260507185552 61 0.0 0.0 0.00 0.00 0.00 10 1014.9
20260507184552 62 0.0 0.0 0.00 0.00 0.00 99 1014.7
20260507183552 62 0.0 0.0 0.00 0.00 0.00 93 1014.5
20260507182552 62 0.0 0.0 0.00 0.00 0.00 92 1014.4
20260507181552 62 0.0 0.0 0.00 0.00 0.00 93 1014.3
20260507180622 62 0.0 0.0 0.00 0.00 0.00 94 1014.2
20260507175622 62 0.0 0.0 0.00 0.00 0.00 92 1014.0
20260507174552 62 0.0 0.0 0.00 0.00 0.00 92 1014.0
20260507173551 63 0.0 0.0 0.00 0.00 0.00 91 1013.9
20260507172552 63 0.0 0.0 0.00 0.00 0.00 94 1013.9
20260507171552 63 0.0 0.0 0.00 0.00 0.00 91 1013.9
20260507170602 64 0.0 0.0 0.00 0.00 0.00 87 1013.9
20260507165607 64 0.0 0.0 0.00 0.00 0.00 85 1013.7
20260507164606 65 0.0 0.0 0.00 0.00 0.00 85 1013.7
20260507163551 65 0.0 0.0 0.00 0.00 0.00 83 1013.5
20260507162606 67 0.0 0.0 0.00 0.00 0.00 80 1013.6
20260507161551 68 0.0 0.0 0.00 0.00 0.00 75 1013.4
20260507160551 68 0.0 0.0 0.00 0.00 0.00 70 1013.3
20260507155551 68 0.0 0.0 0.00 0.00 0.00 71 1013.3
20260507154551 68 0.0 0.0 0.00 0.00 0.00 66 1013.3
20260507153551 68 0.0 0.0 0.00 0.00 0.00 71 1013.1
20260507152551 68 0.0 0.0 0.00 0.00 0.00 72 1013.1
20260507151551 68 0.0 0.0 0.00 0.00 0.00 74 1012.8
20260507150606 67 0.0 0.0 0.00 0.00 0.00 88 1012.8
20260507145551 66 0.0 0.0 0.00 0.00 0.00 89 1012.7
20260507144551 65 0.0 0.0 0.00 0.00 0.00 85 1012.3
20260507143551 65 0.0 0.0 0.00 0.00 0.00 66 1012.0
20260507142551 66 0.0 0.0 0.00 0.00 0.00 72 1012.2
20260507141551 67 0.0 0.0 0.00 0.00 0.00 84 1012.1
20260507140551 68 0.0 0.0 0.00 0.00 0.00 77 1012.1
20260507135606 68 0.0 0.0 0.00 0.00 0.00 76 1012.1
20260507134550 68 0.0 0.0 0.00 0.00 0.00 86 1012.1
20260507133551 68 0.0 0.0 0.00 0.00 0.00 82 1012.1
20260507132551 68 0.0 0.0 0.00 0.00 0.00 81 1012.2
20260507131551 68 0.0 0.0 0.00 0.00 0.00 76 1012.3
20260507130606 69 0.0 0.0 0.00 0.00 0.00 76 1012.4
20260507125551 68 0.0 0.0 0.00 0.00 0.00 79 1012.4
20260507124551 68 0.0 0.0 0.00 0.00 0.00 73 1012.3
20260507123551 68 0.0 0.0 0.00 0.00 0.00 73 1012.4
20260507122550 69 0.0 0.0 0.00 0.00 0.00 70 1012.3
20260507121550 67 0.0 0.0 0.00 0.00 0.00 73 1012.4
20260507120551 67 0.0 0.0 0.00 0.00 0.00 75 1012.5
20260507115621 68 0.0 0.0 0.00 0.00 0.00 73 1012.6
20260507114606 66 0.0 0.0 0.00 0.00 0.00 83 1012.7
20260507113550 66 0.0 0.0 0.00 0.00 0.00 82 1012.8
20260507112551 67 0.0 0.0 0.00 0.00 0.00 80 1012.7
20260507111550 67 0.0 0.0 0.00 0.00 0.00 79 1012.8
20260507110550 66 0.0 0.0 0.00 0.00 0.00 77 1012.8
20260507105550 66 0.0 0.0 0.00 0.00 0.00 90 1013.0
20260507104550 65 0.0 0.0 0.00 0.00 0.00 92 1013.0
20260507103550 65 0.0 0.0 0.00 0.00 0.00 97 1013.1
20260507102550 65 0.0 0.0 0.00 0.00 0.00 95 1013.4
20260507101550 67 0.0 0.0 0.00 0.00 0.00 92 1013.2
20260507100550 66 0.0 0.0 0.00 0.00 0.00 94 1013.3
20260507095605 65 0.0 0.0 0.00 0.00 0.00 10 1013.3
20260507094550 65 0.0 0.0 0.00 0.00 0.00 10 1013.3
20260507093550 65 0.0 0.0 0.00 0.00 0.00 10 1013.3
20260507092550 65 0.0 0.0 0.00 0.00 0.00 10 1013.3
20260507091550 64 0.0 0.0 0.00 0.00 0.00 10 1013.2
20260507090550 63 0.0 0.0 0.00 0.00 0.00 10 1013.2
20260507085605 63 0.0 0.0 0.00 0.00 0.00 10 1013.3
20260507084550 63 0.0 0.0 0.00 0.00 0.00 10 1013.2
20260507083550 63 0.0 0.0 0.00 0.00 0.00 10 1013.2
20260507082550 62 0.0 0.0 0.00 0.00 0.00 10 1013.1
20260507081550 62 0.0 0.0 0.00 0.00 0.00 10 1013.2
20260507080550 61 0.0 0.0 0.00 0.00 0.00 10 1013.1
20260507075605 61 0.0 0.0 0.00 0.00 0.00 10 1013.1
20260507074550 60 0.0 0.0 0.00 0.00 0.00 10 1013.1
20260507073550 60 0.0 0.0 0.00 0.00 0.00 10 1013.0
20260507072550 60 0.0 0.0 0.00 0.00 0.00 10 1013.0
20260507071549 60 0.0 0.0 0.00 0.00 0.00 10 1013.0
20260507070549 60 0.0 0.0 0.00 0.00 0.00 10 1013.0
20260507065549 60 0.0 0.0 0.00 0.00 0.00 10 1013.0
20260507064549 59 0.0 0.0 0.00 0.00 0.00 10 1013.0
20260507063549 59 0.0 0.0 0.00 0.00 0.00 10 1013.0
20260507062605 59 0.0 0.0 0.00 0.00 0.00 10 1012.9
20260507061549 58 0.0 0.0 0.00 0.00 0.00 10 1012.9
20260507060549 58 0.0 0.0 0.00 0.00 0.00 10 1012.9
20260507055549 58 0.0 0.0 0.00 0.00 0.00 10 1012.7
20260507054549 57 0.0 0.0 0.00 0.00 0.00 10 1012.5
20260507053549 56 0.0 0.0 0.00 0.00 0.00 10 1012.4
20260507052549 56 0.0 0.0 0.00 0.00 0.00 10 1012.2
20260507051549 55 0.0 0.0 0.00 0.00 0.00 10 1012.2
20260507050549 55 0.0 0.0 0.00 0.00 0.00 10 1012.1
20260507045549 54 0.0 0.0 0.00 0.00 0.00 10 1012.1
20260507044549 54 0.0 0.0 0.00 0.00 0.00 10 1011.9
20260507043549 54 0.0 0.0 0.00 0.00 0.00 10 1011.8
20260507042549 54 0.0 0.0 0.00 0.00 0.00 10 1011.8
20260507041604 54 0.0 0.0 0.00 0.00 0.00 10 1011.7
20260507040549 55 0.0 0.0 0.00 0.00 0.00 10 1011.5
20260507035549 54 0.0 0.0 0.00 0.00 0.00 10 1011.5
20260507034549 55 0.0 0.0 0.00 0.00 0.00 10 1011.6
20260507033549 55 0.0 0.0 0.00 0.00 0.00 10 1011.5
20260507032549 55 0.0 0.0 0.00 0.00 0.00 10 1011.6
20260507031549 55 0.0 0.0 0.00 0.00 0.00 10 1011.5
20260507030549 56 0.0 0.0 0.00 0.00 0.00 10 1011.6
20260507025609 56 0.0 0.0 0.00 0.00 0.00 10 1011.5
20260507024549 57 0.0 0.0 0.00 0.00 0.00 10 1011.7
20260507023604 57 0.0 0.0 0.00 0.00 0.00 10 1011.5
20260507022548 57 0.0 0.0 0.00 0.00 0.00 10 1011.5
20260507021549 57 0.0 0.0 0.00 0.00 0.00 10 1011.5
20260507020549 57 0.0 0.0 0.00 0.00 0.00 10 1011.4
20260507015548 58 0.0 0.0 0.00 0.00 0.00 10 1011.5
20260507014549 58 0.0 0.0 0.00 0.00 0.00 10 1011.5
20260507013549 57 0.0 0.0 0.00 0.00 0.00 10 1011.5
20260507012548 57 0.0 0.0 0.00 0.00 0.00 10 1011.5
20260507011548 57 0.0 0.0 0.00 0.00 0.00 10 1011.5
20260507010549 57 0.0 0.0 0.00 0.00 0.00 10 1011.5
20260507005548 57 0.0 0.0 0.00 0.00 0.00 10 1011.5
20260507004549 57 0.0 0.0 0.00 0.00 0.00 10 1011.5
20260507003548 57 0.0 0.0 0.00 0.00 0.00 10 1011.4
20260507002603 58 0.0 0.0 0.00 0.00 0.00 10 1011.6
20260507001548 57 0.0 0.0 0.00 0.00 0.00 10 1011.6
20260507000548 57 0.0 0.0 0.00 0.00 0.00 10 1011.5
20260506235548 57 0.0 0.0 0.00 0.00 0.00 10 1011.6
20260506234548 58 0.0 0.0 0.00 0.00 0.00 10 1011.6
20260506233548 58 0.0 0.0 0.00 0.00 0.00 10 1011.7
20260506232548 57 0.0 0.0 0.00 0.00 0.00 10 1011.7
20260506231558 57 0.0 0.0 0.00 0.00 0.00 10 1011.6
20260506230608 57 0.0 0.0 0.00 0.00 0.00 10 1011.6
20260506225548 57 0.0 0.0 0.00 0.00 0.00 10 1011.6
20260506224548 57 0.0 0.0 0.00 0.00 0.00 10 1011.6
20260506223548 57 0.0 0.0 0.00 0.00 0.00 10 1011.7
20260506222553 57 0.0 0.0 0.00 0.00 0.00 10 1011.7
20260506221548 57 0.0 0.0 0.00 0.00 0.00 10 1011.6
20260506220548 57 0.0 0.0 0.00 0.00 0.00 10 1011.6
20260506215548 58 0.0 0.0 0.00 0.00 0.00 10 1011.5
20260506214548 58 0.0 0.0 0.00 0.00 0.00 10 1011.6
20260506213603 58 0.0 0.0 0.00 0.00 0.00 10 1011.7
20260506212618 58 0.0 0.0 0.00 0.00 0.00 10 1011.6
20260506211547 58 0.0 0.0 0.00 0.00 0.00 10 1011.7
20260506210547 58 0.0 0.0 0.00 0.00 0.00 10 1011.7
20260506205547 58 0.0 0.0 0.00 0.00 0.00 10 1011.6
20260506204548 58 0.0 0.0 0.00 0.00 0.00 10 1011.6
20260506203547 58 0.0 0.0 0.00 0.00 0.00 10 1011.5
20260506202547 58 0.0 0.0 0.00 0.00 0.00 10 1011.5
20260506201548 59 0.0 0.0 0.00 0.00 0.00 10 1011.4
20260506200547 59 0.0 0.0 0.00 0.00 0.00 10 1011.2
20260506195548 59 0.0 0.0 0.00 0.00 0.00 10 1011.2
20260506194552 59 0.0 0.0 0.00 0.00 0.00 10 1011.1
20260506193547 59 0.0 0.0 0.00 0.00 0.00 10 1011.0
20260506192552 59 0.0 0.0 0.00 0.00 0.00 10 1011.0
20260506191603 59 0.0 0.0 0.00 0.00 0.00 10 1010.9
20260506190547 59 0.0 0.0 0.00 0.00 0.00 10 1010.9